#timestamp,LO_Frequency,Hit,StdDev 
1649919615.8,286047008.3,N
1649919635.6,286047013.5,Y
1649919655.5,286047003.3,P
1649919675.3,286047004.6,N
1649919695.1,286047004.4,N
1649919715.9,286046996.6,N
1649919735.7,286046993.4,N
1649919755.6,286046994.3,N
1649919775.4,286047000.2,N
1649919795.2,286047011.9,N
1649919815.1,286047003.7,N
1649919816.0,286047003.7,N
1649919835.8,286046998.8,N
1649919855.6,286046994.8,N
1649919875.5,286046990.7,N
1649919895.3,286046990.1,N
1649919915.2,286046997.0,N
1649919935.9,286047001.2,N
1649919955.7,286047002.6,N
1649919975.6,286047004.3,N
1649919995.4,286046999.6,N
1649920015.2,286046999.1,N
1649920035.1,286047000.7,N
1649920036.0,286047000.7,N
1649920055.8,286046996.7,N
1649920075.7,286046992.2,N
1649920095.5,286046999.9,N
1649920115.3,286047002.7,N
1649920135.2,286047005.3,N
1649920155.0,286047006.1,N
1649920155.9,286047006.1,N
1649920175.8,286047006.1,N
1649920195.6,286047004.3,N
1649920215.4,286047007.6,N
1649920235.3,286047008.6,N
1649920255.1,286047004.5,N
1649920275.8,286047002.3,N
1649920295.7,286046996.5,N
1649920315.5,286047001.1,N
1649920335.4,286046995.3,N
1649920355.2,286046993.7,N
1649920375.0,286046990.2,N
1649920375.9,286046990.2,N
1649920395.8,286046990.9,N
1649920415.6,286046992.5,N
1649920435.4,286046994.9,N
1649920455.3,286046994.4,N
1649920505.1,286047000.7,E
1649920515.1,286046996.6,N
1649920516.0,286046996.6,P
1649920535.8,286046994.5,P
1649920555.7,286046993.4,Y
1649920575.5,286047002.1,P
1649920595.3,286046999.3,N
1649920615.2,286046997.1,N
1649920635.9,286046995.6,N
1649920655.7,286047002.8,N
1649920675.6,286047003.0,N
1649920695.4,286047006.1,N
1649920715.3,286047012.1,Y
1649920735.1,286047008.6,P
1649920736.0,286047008.6,N
1649920755.8,286047003.6,N
1649920775.7,286047001.5,N
1649920795.5,286046998.6,N
1649920815.3,286046998.2,N
1649920835.2,286046999.3,N
1649920855.0,286047002.7,N
1649920855.9,286047002.7,N
1649920875.8,286046999.0,N
1649920895.6,286046993.9,N
1649920915.4,286046990.5,N
1649920935.3,286046987.5,N
1649920955.1,286046986.8,N
1649920975.8,286046982.4,N
1649920995.7,286046981.5,N
1649921015.5,286046981.8,N
1649921035.4,286046980.1,N
1649921055.2,286046977.3,N
1649921075.0,286046979.9,N
1649921075.9,286046979.9,N
1649921095.8,286046979.8,N
1649921115.6,286046979.9,N
1649921135.4,286046979.6,N
1649921155.3,286046978.0,N
1649921175.1,286046978.2,N
1649921195.9,286046978.2,N
1649921215.7,286046976.9,N
1649921235.5,286046974.7,N
1649921255.4,286046977.1,N
1649921275.2,286046974.3,N
1649921295.0,286046973.3,N
1649921295.9,286046973.3,N
1649921315.8,286046971.0,Y
1649921335.6,286046986.2,P
1649921355.5,286046985.4,P
1649921375.3,286046987.6,P
1649921395.1,286046989.3,Y
1649921415.9,286047003.3,P
1649921435.7,286047004.2,N
1649921455.6,286047000.5,N
1649921475.4,286047001.1,N
1649921495.2,286047000.9,N
1649921515.1,286046999.7,N
1649921516.0,286046999.7,N
1649921535.8,286047001.0,N
1649921555.6,286047000.9,N
1649921575.5,286046998.5,N
1649921595.3,286046999.5,N
1649921615.1,286046998.6,N
1649921635.9,286046999.3,N
1649921655.7,286046996.9,N
1649921675.6,286046996.6,N
1649921695.4,286046999.6,N
1649921715.2,286046998.7,N
1649921735.1,286046998.2,N
1649921736.0,286046998.2,N
1649921755.8,286046998.3,N
1649921775.7,286046996.9,N
1649921795.5,286046999.9,N
1649921815.3,286046999.9,N
1649921835.2,286047002.8,N
1649921855.9,286047002.3,N
1649921875.7,286047000.0,N
1649921895.6,286047000.9,N
1649921915.4,286046998.4,N
1649921935.3,286046998.1,N
1649921955.1,286047001.0,N
1649921956.0,286047001.0,N
1649921975.8,286047000.8,N
1649921995.7,286047001.2,N
1649922015.5,286046998.6,N
1649922035.3,286046998.5,N
1649922055.2,286046998.5,N
1649922075.0,286046998.2,N
1649922075.9,286046998.2,N
1649922095.8,286046998.1,N
1649922115.6,286046999.3,N
1649922135.4,286047000.0,N
1649922155.3,286047002.7,N
1649922175.1,286047000.6,N
1649922195.8,286047001.2,N
1649922215.7,286046998.2,N
1649922235.5,286046996.8,N
1649922255.4,286046999.6,N
1649922275.2,286046999.0,N
1649922295.0,286046998.7,N
1649922295.9,286046998.7,N
1649922315.8,286046998.9,N
1649922335.6,286046998.0,N
1649922355.5,286046996.2,N
1649922375.3,286046993.8,Y
1649922395.1,286046995.2,P
1649922415.9,286046996.2,N
1649922435.7,286046995.7,N
1649922455.5,286046996.0,N
1649922475.4,286046996.4,N
1649922495.2,286046994.4,Y
1649922515.1,286046996.6,P
1649922516.0,286046996.6,P
1649922535.8,286046998.0,P
1649922555.6,286046994.9,Y
1649922575.5,286047000.9,P
1649922595.3,286047000.8,N
1649922615.2,286047000.6,N
1649922635.9,286047000.0,N
1649922655.7,286047002.3,N
1649922675.6,286047004.8,N
1649922695.4,286047007.3,Y
1649922715.2,286047007.1,P
1649922735.1,286047013.0,P
1649922736.0,286047013.0,N
1649922755.8,286047014.2,N
1649922775.7,286047020.2,Y
1649922795.5,286047018.1,P
1649922815.3,286047020.0,P
1649922835.2,286047023.2,P
1649922855.0,286047026.3,Y
1649922855.9,286047026.3,P
1649922875.8,286047037.5,P
1649922895.6,286047010.9,N
1649922915.4,286047009.8,N
1649922935.3,286047005.6,N
1649922955.1,286047002.2,N
1649922975.8,286046996.6,N
1649922995.7,286046997.7,N
1649923015.5,286047002.1,N
1649923035.4,286046996.7,N
1649923055.2,286047001.7,N
1649923075.0,286047006.7,N
1649923075.9,286047006.7,N
1649923095.8,286047003.9,N
1649923115.6,286047002.6,N
1649923135.5,286046998.4,N
1649923155.3,286047007.0,N
1649923175.1,286047008.5,N
1649923195.9,286047011.0,N
